Flag for Canada Weather past 2 weeks in Saguenay, Quebec, Canada

Now
34 °F

Chilly.


Feels Like: 25 °F
Forecast: 28 / 52 °F
Wind: 12 mph from Northwest

Location: Jonquiere Airport

Current Time: Sep 19, 2014 at 2:04:56 AM

Latest Report: Sep 19, 2014 at 1:00 AM


Visibility: N/A

Pressure: 30.27 "Hg

Humidity: 88%

Dew point: 31 °F

Location of SaguenayLocation

Historic Weather in Saguenay — Graph

°F

Saguenay temperature yesterday

Maximum temperature yesterday: 47 °F (at 4:00 PM)
Minimum temperature yesterday: 36 °F (at 11:00 PM)
Average temperature yesterday: 42 °F

Past Weeks' High & Low Weather Summary

 TemperatureHumidityPressure
High78 °F (Sep 5, 3:00 PM)100% (Sep 13, 4:00 AM)30.42 "Hg (Sep 13, 4:00 AM)
Low33 °F (Sep 13, 4:00 AM)35% (Sep 7, 3:00 PM)29.38 "Hg (Sep 11, 3:00 PM)
Average53 °F76%30.04 "Hg
* Reported Midnight between Sep 3 and Sep 4 — Midnight between Sep 18 and Sep 19, Saguenay, Weather by CustomWeather, © 2014

Note: Actual official high and low records may vary slightly from our data, if they occured in-between our weather recording intervals... More about our weather records

Advertising

Saguenay weather history for previous 24 hours

 ConditionsComfort  
Time TempWeatherWind HumidityBarometerVisibility
12:00 AM
Sep 19
35 °FChilly.12 mph91%30.24 "HgN/A
11:00 PM
Sep 18
36 °FChilly.9 mph79%30.23 "HgN/A
10:00 PM37 °FChilly.10 mph74%30.21 "HgN/A
9:00 PM38 °FChilly.12 mph69%30.19 "HgN/A
8:00 PM39 °FChilly.9 mph62%30.17 "HgN/A
7:00 PM43 °FQuite cool.13 mph47%30.14 "HgN/A
6:00 PM45 °FCool.14 mph47%30.12 "HgN/A
5:00 PM46 °FCool.13 mph40%30.10 "HgN/A
4:00 PM47 °FCool.15 mph41%30.10 "HgN/A
3:00 PM42 °FQuite cool.15 mph56%30.10 "HgN/A
2:00 PM44 °FQuite cool.14 mph48%30.09 "HgN/A
1:00 PM46 °FCool.13 mph47%30.08 "HgN/A
12:00 PM45 °FQuite cool.12 mph56%30.08 "HgN/A
11:00 AM42 °FQuite cool.13 mph59%30.08 "HgN/A
10:00 AM42 °FQuite cool.13 mph62%30.07 "HgN/A
9:00 AM41 °FQuite cool.10 mph74%30.05 "HgN/A
8:00 AM40 °FChilly.13 mph81%30.03 "HgN/A
7:00 AM38 °FChilly.8 mph85%30.01 "HgN/A
6:00 AM40 °FChilly.8 mph82%29.98 "HgN/A
5:00 AM41 °FQuite cool.5 mph78%29.97 "HgN/A
4:00 AM42 °FQuite cool.9 mph76%29.96 "HgN/A
3:00 AM42 °FQuite cool.7 mph85%29.95 "HgN/A
2:00 AM42 °FQuite cool.1 mph86%29.96 "HgN/A
Weather by CustomWeather, © 2014

See weather overviewHow to use our weather pages